Weather History for KARM - August, 2013

Change the Weather History Date:

Sunday, August 25, 2013

  Actual Average (KPSX) Record (KPSX)
Temperature  
Mean Temperature 81 °F -  
Max Temperature 89 °F 90 °F 100 °F (2010)
Min Temperature 74 °F 74 °F 65 °F (1949)
Cooling Degree Days 16    
Growing Degree Days 31 (Base 50)    
Moisture  
Dew Point 74 °F    
Average Humidity 82    
Maximum Humidity 96    
Minimum Humidity 61    
Precipitation  
Precipitation 0.20 in - - ()
Sea Level Pressure  
Sea Level Pressure 30.04 in    
Wind  
Wind Speed 5 mph (NE)    
Max Wind Speed 14 mph    
Max Gust Speed 21 mph    
Visibility 10 miles    
Events Rain , Thunderstorm    
Averages and records for this station are not official NWS values.
T = Trace of Precipitation, MM = Missing Value Source: NWS Daily Summary

Daily Weather History Graph

Daily Weather History Graph

Search for Another Location

Airport or City:

Trip Planner

Search our weather history database for the weather conditions in past years. The results will help you decide how hot, cold, wet, or windy it might be!

Date:

Astronomy

Aug. 25, 2013 Rise Set
Actual Time 6:58 AM CDT 7:54 PM CDT
Civil Twilight 6:34 AM CDT 8:18 PM CDT
Nautical Twilight 6:05 AM CDT 8:47 PM CDT
Astronomical Twilight 5:35 AM CDT 9:16 PM CDT
Moon 10:55 PM CDT (8/25) 11:33 AM CDT (8/25)
Length of Visible Light 13h 44m
Length of Day
12h 55m
Waning Gibbous, 75% of the Moon is Illuminated
Aug 25
Waning Gibbous
Aug 28
Last Quarter
Sep 5
New
Sep 12
First Quarter
Sep 19
Full

Hourly Weather History & Observations

Time (CDT) Temp. Heat Index Dew Point Humidity Pressure Visibility Wind Dir Wind Speed Gust Speed Precip Events Conditions
12:15 AM 77.0 °F - 71.8 °F 84% 30.02 in 10.0 mi Calm Calm - N/A   Clear
12:35 AM 75.2 °F - 71.6 °F 89% 30.01 in 10.0 mi Calm Calm - N/A   Clear
12:55 AM 75.9 °F - 71.8 °F 87% 30.01 in 10.0 mi Calm Calm - N/A   Clear
1:15 AM 76.1 °F - 71.8 °F 86% 30.01 in 10.0 mi Calm Calm - N/A   Clear
1:35 AM 75.6 °F - 71.8 °F 88% 30.01 in 10.0 mi Calm Calm - N/A   Clear
1:55 AM 75.2 °F - 71.8 °F 89% 30.01 in 10.0 mi Calm Calm - N/A   Mostly Cloudy
2:15 AM 75.2 °F - 71.8 °F 89% 30.01 in 10.0 mi Calm Calm - N/A   Scattered Clouds
2:35 AM 74.3 °F - 71.8 °F 92% 30.01 in 10.0 mi North 3.5 mph - N/A   Scattered Clouds
2:55 AM 74.3 °F - 72.0 °F 92% 30.01 in 10.0 mi NNE 3.5 mph - N/A   Scattered Clouds
3:15 AM 74.7 °F - 72.1 °F 92% 30.01 in 10.0 mi NNE 3.5 mph - N/A   Clear
3:35 AM 74.5 °F - 72.1 °F 92% 30.01 in 10.0 mi North 4.6 mph - N/A   Clear
3:55 AM 74.3 °F - 72.0 °F 92% 30.01 in 10.0 mi North 3.5 mph - N/A   Clear
4:15 AM 74.7 °F - 72.5 °F 93% 30.01 in 10.0 mi North 3.5 mph - N/A   Clear
4:35 AM 74.7 °F - 72.5 °F 93% 30.01 in 10.0 mi Calm Calm - N/A   Clear
4:55 AM 75.0 °F - 72.9 °F 93% 30.02 in 10.0 mi North 3.5 mph - N/A   Mostly Cloudy
5:15 AM 75.4 °F - 72.9 °F 92% 30.02 in 10.0 mi NNW 5.8 mph - N/A   Mostly Cloudy
5:35 AM 75.9 °F - 73.0 °F 91% 30.01 in 10.0 mi North 5.8 mph - N/A Thunderstorm Mostly Cloudy
5:55 AM 76.1 °F - 73.0 °F 90% 30.02 in 10.0 mi North 3.5 mph - N/A   Scattered Clouds
6:15 AM 76.6 °F - 73.0 °F 89% 30.02 in 10.0 mi NNE 4.6 mph - N/A   Clear
6:35 AM 76.6 °F - 73.4 °F 90% 30.03 in 10.0 mi NNE 5.8 mph - N/A Thunderstorm Scattered Clouds
6:55 AM 76.1 °F - 73.6 °F 92% 30.03 in 10.0 mi NNE 8.1 mph - N/A   Mostly Cloudy
7:15 AM 75.7 °F - 73.9 °F 94% 30.04 in 7.0 mi North 5.8 mph - 0.02 in Rain Rain
7:35 AM 75.4 °F - 73.8 °F 95% 30.03 in 3.0 mi North 5.8 mph - 0.18 in Rain , Thunderstorm Heavy Thunderstorms and Rain
7:55 AM 75.6 °F - 74.3 °F 96% 30.03 in 7.0 mi NNW 5.8 mph - 0.20 in   Light Drizzle
8:15 AM 76.3 °F - 74.7 °F 95% 30.03 in 10.0 mi North 5.8 mph - N/A   Overcast
8:35 AM 77.0 °F - 74.7 °F 92% 30.04 in 10.0 mi North 6.9 mph - N/A   Overcast
8:55 AM 77.7 °F - 75.2 °F 92% 30.04 in 10.0 mi NNE 8.1 mph - N/A Thunderstorm Mostly Cloudy
9:15 AM 78.1 °F - 75.0 °F 90% 30.04 in 10.0 mi NE 6.9 mph - N/A   Overcast
9:35 AM 78.8 °F - 74.8 °F 88% 30.05 in 10.0 mi NE 8.1 mph - N/A   Overcast
9:55 AM 78.4 °F - 74.1 °F 87% 30.06 in 10.0 mi NE 6.9 mph - N/A   Overcast
10:15 AM 79.5 °F - 74.7 °F 85% 30.06 in 10.0 mi NE 6.9 mph - N/A   Overcast
10:35 AM 79.9 °F - 74.3 °F 83% 30.06 in 10.0 mi NE 8.1 mph - N/A   Overcast
10:55 AM 81.9 °F 88.0 °F 74.5 °F 78% 30.07 in 10.0 mi NE 9.2 mph - N/A   Overcast
11:15 AM 81.5 °F 87.2 °F 74.1 °F 78% 30.07 in 10.0 mi NE 9.2 mph - N/A   Overcast
11:35 AM 82.2 °F 88.5 °F 74.3 °F 77% 30.06 in 10.0 mi NE 9.2 mph - N/A   Overcast
11:55 AM 83.5 °F 90.0 °F 73.8 °F 72% 30.06 in 10.0 mi NE 9.2 mph - N/A   Mostly Cloudy
12:15 PM 82.0 °F 87.9 °F 73.8 °F 76% 30.07 in 10.0 mi ENE 11.5 mph - N/A   Overcast
12:35 PM 82.2 °F 88.3 °F 74.1 °F 76% 30.07 in 10.0 mi ENE 10.4 mph - N/A   Overcast
12:55 PM 80.6 °F 86.0 °F 74.8 °F 83% 30.07 in 10.0 mi ENE 9.2 mph - N/A   Overcast
1:15 PM 83.5 °F 91.2 °F 75.4 °F 76% 30.06 in 10.0 mi ENE 8.1 mph - N/A   Mostly Cloudy
1:35 PM 84.2 °F 92.3 °F 75.2 °F 74% 30.05 in 10.0 mi East 8.1 mph - N/A Thunderstorm Mostly Cloudy
1:55 PM 86.0 °F 94.6 °F 74.7 °F 69% 30.05 in 10.0 mi ENE 10.4 mph - N/A   Mostly Cloudy
2:15 PM 85.8 °F 94.2 °F 74.7 °F 69% 30.05 in 10.0 mi ENE 9.2 mph - N/A   Mostly Cloudy
2:35 PM 86.4 °F 94.2 °F 73.9 °F 66% 30.04 in 10.0 mi ENE 12.7 mph - N/A   Mostly Cloudy
2:55 PM 86.0 °F 93.4 °F 73.6 °F 66% 30.04 in 10.0 mi ENE 10.4 mph - N/A   Mostly Cloudy
3:15 PM 88.7 °F 97.7 °F 74.1 °F 62% 30.03 in 10.0 mi East 12.7 mph 17.3 mph N/A   Mostly Cloudy
3:35 PM 87.8 °F 96.6 °F 74.1 °F 64% 30.02 in 10.0 mi ENE 12.7 mph - N/A   Mostly Cloudy
3:55 PM 88.2 °F 96.0 °F 73.2 °F 61% 30.02 in 10.0 mi East 9.2 mph 19.6 mph N/A   Mostly Cloudy
4:15 PM 87.1 °F 95.4 °F 74.1 °F 65% 30.01 in 10.0 mi NE 13.8 mph 19.6 mph N/A Thunderstorm Mostly Cloudy
4:35 PM 86.9 °F 93.7 °F 72.7 °F 62% 30.01 in 10.0 mi NE 11.5 mph - N/A   Scattered Clouds
4:55 PM 86.2 °F 93.8 °F 73.4 °F 66% 30.02 in 10.0 mi East 11.5 mph 20.7 mph N/A   Scattered Clouds
5:15 PM 85.1 °F 92.2 °F 73.4 °F 68% 30.02 in 10.0 mi East 13.8 mph - N/A   Scattered Clouds
5:35 PM 84.6 °F 91.4 °F 73.4 °F 69% 30.02 in 10.0 mi ENE 12.7 mph 16.1 mph N/A   Clear
5:55 PM 84.6 °F 92.1 °F 74.3 °F 71% 30.02 in 10.0 mi ENE 13.8 mph - N/A Thunderstorm Clear
6:15 PM 85.3 °F 92.6 °F 73.6 °F 68% 30.02 in 10.0 mi East 12.7 mph - N/A   Mostly Cloudy
6:35 PM 83.8 °F 90.1 °F 73.0 °F 70% 30.03 in 10.0 mi East 13.8 mph 20.7 mph N/A   Mostly Cloudy
6:55 PM 82.8 °F 88.4 °F 73.0 °F 72% 30.03 in 10.0 mi East 11.5 mph 17.3 mph N/A   Clear
7:15 PM 83.3 °F 89.6 °F 73.4 °F 72% 30.03 in 10.0 mi East 10.4 mph - N/A   Clear
7:35 PM 82.2 °F 88.0 °F 73.6 °F 75% 30.03 in 10.0 mi East 8.1 mph - N/A   Scattered Clouds
7:55 PM 81.5 °F 86.5 °F 73.0 °F 75% 30.05 in 10.0 mi East 8.1 mph - N/A   Scattered Clouds
8:15 PM 80.6 °F 85.4 °F 73.4 °F 79% 30.05 in 10.0 mi East 5.8 mph - N/A   Scattered Clouds
8:35 PM 79.9 °F - 73.6 °F 81% 30.05 in 10.0 mi East 6.9 mph - N/A   Scattered Clouds
8:55 PM 79.3 °F - 73.9 °F 83% 30.05 in 10.0 mi East 4.6 mph - N/A   Clear
9:15 PM 79.0 °F - 74.3 °F 85% 30.06 in 10.0 mi East 4.6 mph - N/A   Mostly Cloudy
9:35 PM 78.1 °F - 73.9 °F 87% 30.06 in 10.0 mi ENE 5.8 mph - N/A   Scattered Clouds
9:55 PM 77.2 °F - 73.6 °F 89% 30.07 in 10.0 mi ENE 5.8 mph - N/A   Clear
10:15 PM 77.4 °F - 73.8 °F 89% 30.07 in 10.0 mi ENE 4.6 mph - N/A   Mostly Cloudy
10:35 PM 77.2 °F - 73.9 °F 90% 30.07 in 10.0 mi ENE 5.8 mph - N/A   Overcast
10:55 PM 76.6 °F - 73.8 °F 91% 30.08 in 10.0 mi ENE 4.6 mph - N/A   Scattered Clouds
11:15 PM 76.5 °F - 74.3 °F 93% 30.07 in 10.0 mi ENE 8.1 mph - N/A   Mostly Cloudy
11:35 PM 76.3 °F - 74.3 °F 94% 30.07 in 10.0 mi ENE 5.8 mph - N/A   Overcast
11:55 PM 76.3 °F - 74.5 °F 94% 30.07 in 10.0 mi ENE 4.6 mph - N/A   Mostly Cloudy